Theta_e
315 314 314 316 314 310 309 307 305 305 305 305 305 305 305 306 306 306 306 306 306 306 306 306 306 306 306 306 306 306 305 305 305 305 305 305 305 305 305 305 305 304
316 316 313 316 317 312 308 307 305 306 306 305 306 306 306 306 306 306 306 306 306 306 306 306 306 306 306 306 306 305 305 305 305 304 305 305 304 304 304 304 304 303
317 317 313 314 318 315 309 307 306 306 306 306 306 306 307 307 307 307 307 307 306 306 306 306 306 306 306 306 305 305 305 305 305 305 305 305 304 304 304 304 304 304
315 316 315 313 315 316 311 307 307 307 307 307 307 307 307 308 308 309 309 308 308 308 307 307 307 307 306 306 306 306 306 306 306 306 306 306 306 305 305 305 306 306
315 316 316 315 315 317 314 309 308 308 307 308 308 307 307 308 309 309 310 310 310 310 310 309 309 309 308 308 307 307 307 307 307 308 307 308 307 307 307 307 307 307
316 317 317 316 316 317 316 311 309 309 309 309 310 309 308 308 309 309 309 309 310 310 310 310 310 309 309 309 308 308 308 308 308 308 308 308 308 308 308 307 307 308
317 317 316 318 318 317 317 314 310 311 313 313 313 313 312 311 311 311 310 310 311 311 312 311 312 311 311 310 310 309 309 309 309 309 308 308 308 308 308 308 308 308
318 317 316 317 318 318 317 316 313 312 314 315 315 315 315 314 314 314 314 314 314 315 315 315 315 315 314 313 313 313 313 313 313 313 312 311 310 309 308 308 308 307
319 317 316 318 319 318 317 317 314 313 313 315 316 316 316 316 316 316 316 316 316 316 316 316 316 316 315 315 315 315 315 316 316 316 316 315 314 313 312 311 310 310
319 317 316 317 320 319 318 317 316 314 314 315 316 316 316 316 316 316 316 317 316 316 316 316 316 316 316 316 316 316 316 316 317 317 317 317 317 316 316 315 315 314
319 318 316 317 319 319 318 317 316 315 315 316 316 317 316 316 316 316 316 316 317 317 317 316 316 316 316 316 316 316 316 316 316 316 317 317 317 317 317 317 317 317
319 318 317 318 319 318 317 317 317 316 315 316 316 317 317 316 316 316 316 316 316 317 317 316 316 316 316 316 316 316 316 316 316 316 317 317 317 317 317 317 317 317
320 319 320 320 320 319 318 317 318 317 316 316 317 318 317 316 316 316 316 315 316 317 317 317 316 316 316 316 317 317 316 315 315 315 316 317 317 317 317 317 317 317
320 320 320 320 319 318 318 318 318 317 317 318 318 317 317 316 316 316 316 315 315 316 316 317 316 316 317 317 317 317 315 314 313 314 316 316 316 316 316 317 317 317
319 320 320 319 318 319 318 318 318 317 317 317 316 315 315 314 314 315 316 315 315 315 316 316 316 317 317 317 317 317 315 313 312 313 314 315 315 315 315 316 317 317
319 319 320 319 318 318 318 318 318 317 316 316 315 315 314 314 314 315 315 314 315 316 316 317 317 317 318 317 317 316 315 314 314 314 315 316 316 316 316 316 317 317
318 318 319 319 318 317 317 318 318 317 315 314 315 316 315 315 316 315 315 315 315 316 317 317 317 318 317 317 316 316 315 315 315 315 315 316 316 316 316 316 317 317
318 317 317 317 318 318 318 317 317 317 316 315 316 317 315 315 316 316 316 316 316 316 316 316 316 316 315 315 314 315 315 315 315 315 315 316 316 317 317 317 317 317
318 318 318 318 319 319 319 318 317 317 316 316 316 316 315 315 315 315 315 315 316 316 315 315 315 315 315 315 315 315 315 315 315 315 315 316 316 317 318 318 318 318
318 318 317 318 318 318 318 318 317 317 317 316 315 314 314 314 314 315 315 315 316 315 314 314 314 313 313 313 313 312 312 311 310 309 309 309 309 311 314 316 318 318
316 316 316 316 317 317 317 317 316 316 316 315 314 314 314 314 315 315 315 315 315 314 313 311 309 307 306 306 306 306 305 305 304 303 302 303 304 307 310 313 316 317
314 315 315 315 315 315 315 315 314 314 313 314 314 314 314 314 314 314 314 313 312 310 307 304 303 302 303 303 303 304 303 303 303 302 302 302 303 305 308 311 314 316
313 313 313 312 312 311 312 312 312 312 312 312 312 313 313 313 313 313 312 310 307 304 303 302 303 303 303 303 304 304 304 304 304 304 304 303 303 303 305 308 312 314
310 311 311 311 310 310 310 310 310 310 309 309 310 310 310 310 309 309 307 305 303 303 303 303 303 304 304 305 305 305 306 306 306 306 306 305 304 305 306 308 310 312
307 308 308 309 309 309 309 308 307 305 305 305 305 305 305 305 305 304 304 304 304 304 304 304 305 306 307 307 307 308 308 308 308 308 308 307 305 306 308 309 309 310
307 307 307 308 308 307 307 307 305 304 303 303 303 302 302 303 303 303 303 303 304 304 305 307 308 308 308 308 309 309 309 310 309 309 309 308 306 306 308 309 308 308
Wind_Speed
14 10 6 8 8 7 8 8 10 11 12 12 12 12 13 13 12 12 12 11 11 12 12 11 11 11 11 11 10 10 9 7 7 7 6 5 4 4 4 3 3 3
18 12 7 11 13 9 8 10 13 14 14 14 14 14 15 15 15 14 14 14 13 13 13 12 11 10 10 10 9 8 8 8 8 8 7 6 6 6 6 6 5 5
20 15 9 11 15 12 10 13 15 15 15 15 15 15 16 16 16 16 15 15 15 14 14 13 12 11 10 11 10 9 9 9 9 9 9 8 8 8 7 7 6 6
21 18 15 14 16 15 13 15 17 17 16 16 15 15 15 15 15 16 15 15 15 15 14 13 12 12 11 11 11 10 10 10 9 9 9 9 9 8 7 7 6 6
24 20 21 21 19 18 17 17 19 19 17 16 16 15 15 14 14 14 14 14 14 14 14 13 13 12 11 11 10 10 10 9 8 8 7 7 7 6 6 5 5 5
25 22 26 26 24 23 21 19 19 20 18 16 16 15 14 14 13 12 12 12 12 12 11 12 12 11 10 9 9 8 8 8 7 6 5 5 4 3 3 2 2 2
26 25 29 29 27 27 25 21 20 20 19 17 15 14 13 13 11 10 10 10 10 9 9 9 9 10 10 9 8 8 7 7 6 6 5 4 3 1 0 0 1 1
28 27 30 31 30 30 28 25 22 20 19 19 17 15 12 11 10 9 9 9 8 8 8 8 8 8 8 8 7 7 6 6 6 6 5 4 4 3 2 2 2 3
27 28 32 33 32 31 32 31 27 22 20 20 21 18 15 13 11 9 8 8 7 7 7 7 7 6 6 5 4 4 5 6 6 6 6 5 4 3 2 2 2 4
28 30 33 34 33 32 33 34 32 27 24 23 24 24 21 17 14 12 10 8 8 7 6 5 4 3 3 3 4 5 5 4 4 4 5 4 4 3 2 1 2 3
31 32 34 34 33 32 32 33 34 32 28 28 30 30 27 20 14 15 16 13 10 9 7 5 6 6 7 8 8 7 7 7 6 6 5 5 4 3 3 3 3 3
32 32 32 31 32 33 31 31 35 36 32 30 32 33 31 25 18 19 22 20 15 12 10 9 9 10 11 11 11 10 10 11 11 10 9 8 8 7 7 6 6 6
30 29 27 28 31 32 29 28 32 36 35 32 32 33 32 26 20 21 24 21 17 14 13 13 13 13 13 13 13 13 14 16 16 14 12 12 12 12 12 10 9 9
28 25 23 25 27 27 27 27 27 29 30 28 25 27 29 24 20 22 24 21 17 15 15 16 15 15 15 15 15 16 17 19 18 16 15 15 15 16 15 15 13 13
27 24 25 29 28 26 28 29 27 25 25 25 23 22 25 24 21 23 25 23 20 19 18 16 14 15 16 16 16 17 19 20 18 17 17 18 19 19 18 17 16 16
21 23 28 31 29 27 27 26 26 26 26 30 30 27 26 25 22 23 25 23 20 20 19 17 16 17 18 18 19 21 22 21 19 19 21 21 20 20 19 19 19 18
21 25 28 26 24 25 24 22 24 25 24 25 26 24 25 24 21 21 22 20 19 18 17 17 18 19 20 21 21 21 21 20 20 21 22 21 21 21 21 20 20 20
22 26 28 24 21 22 22 19 21 22 21 21 22 21 22 21 19 19 19 18 19 18 16 17 18 19 20 20 20 19 20 20 21 21 21 21 22 22 22 22 21 20
19 22 23 21 19 18 17 15 17 18 18 19 19 18 18 18 16 16 15 14 16 17 17 17 17 17 18 18 19 19 21 22 22 23 23 24 23 23 22 22 21 20
19 20 19 18 16 15 14 14 15 16 16 17 16 15 15 15 15 13 11 11 12 15 15 15 15 15 16 17 18 19 21 22 23 23 24 25 25 23 22 21 20 18
13 16 16 14 13 13 14 15 15 16 17 16 14 13 13 13 12 11 11 12 13 13 13 13 13 14 14 14 15 16 18 19 19 19 19 20 21 20 19 19 17 15
6 9 10 11 13 14 15 16 17 17 18 17 15 14 13 13 13 12 12 12 12 11 11 11 11 11 11 11 12 13 13 14 14 13 14 14 15 16 16 16 15 13
7 9 11 12 14 15 16 17 17 17 17 16 15 15 13 13 12 12 12 11 10 8 8 8 9 10 11 12 12 12 12 13 13 13 13 13 13 13 13 13 12 12
9 11 12 13 14 14 14 15 15 15 16 16 15 14 13 13 12 12 11 9 7 7 7 9 10 12 13 14 15 15 15 15 15 15 15 15 14 13 13 12 11 11
11 13 13 14 14 14 13 13 13 13 13 13 13 13 13 12 11 11 9 8 7 7 9 10 11 13 14 16 17 17 17 17 17 17 17 16 15 13 12 11 11 12
8 13 15 15 15 14 13 13 12 11 10 10 10 10 10 10 10 9 8 8 8 9 10 11 13 14 15 17 17 17 17 17 17 17 16 15 14 12 11 11 12 13
Wind_Direction
216 209 210 231 235 217 206 190 164 153 145 140 138 131 129 129 128 128 129 125 122 120 117 119 119 114 111 107 102 100 99 102 106 104 104 109 113 109 101 91 80 68
205 207 217 227 234 230 208 188 164 152 147 140 137 132 127 125 124 125 125 123 122 122 120 120 120 116 112 106 100 97 95 94 96 94 92 96 96 94 92 89 82 73
204 213 225 222 228 232 213 192 174 160 156 152 146 140 132 126 123 121 120 119 118 119 120 121 120 117 113 108 104 99 94 93 92 92 93 93 90 86 84 83 80 72
207 218 228 223 223 225 218 201 183 170 167 163 157 152 144 135 130 125 121 119 117 116 116 117 115 112 108 106 104 99 95 92 88 87 89 92 92 90 84 78 73 69
205 217 224 227 228 225 220 210 193 180 176 171 166 164 161 153 145 137 131 128 125 123 121 120 118 114 111 108 106 105 103 100 96 91 87 85 86 87 85 78 68 66
208 218 220 224 232 230 223 216 205 193 185 181 176 171 167 163 157 151 146 141 138 136 134 133 131 128 127 124 121 120 118 117 117 114 108 100 91 80 82 82 66 53
217 225 221 220 229 232 227 220 216 209 201 198 194 185 178 171 162 156 153 150 146 144 141 141 141 140 141 141 142 142 139 136 137 138 139 137 136 140 189 258 324 322
227 229 222 219 225 232 232 225 221 219 215 214 212 205 197 189 178 165 158 157 153 150 150 149 147 148 149 150 154 161 166 168 167 166 167 164 165 182 220 251 284 302
231 226 218 220 227 232 233 228 222 218 218 221 222 219 215 211 205 192 178 170 167 164 166 168 165 164 164 164 178 195 199 194 189 184 180 176 172 175 197 233 284 305
227 221 216 220 228 231 231 228 225 218 214 218 222 223 221 217 215 215 206 193 192 199 201 204 221 228 229 273 293 279 265 246 224 210 198 190 184 188 203 226 272 298
224 222 218 219 223 227 228 228 227 224 220 220 221 223 223 217 213 221 220 212 212 228 246 266 281 287 295 307 307 296 285 276 267 262 254 241 233 237 245 254 270 287
225 223 223 222 219 220 226 227 225 225 225 224 223 222 219 215 213 222 223 219 218 232 259 282 293 299 306 308 302 297 296 291 281 272 266 267 269 270 269 272 279 285
225 228 230 223 214 215 224 229 229 227 227 231 233 226 219 217 224 231 230 228 228 235 257 279 288 292 297 300 297 297 302 302 293 278 267 266 269 272 274 277 284 287
222 232 234 220 213 216 223 226 228 225 223 228 232 224 217 224 242 246 239 238 242 247 256 270 280 282 286 291 291 293 301 305 298 285 276 272 273 274 273 272 278 284
220 228 229 220 219 223 224 224 225 223 223 229 236 231 224 231 246 246 237 236 243 250 254 265 277 279 280 282 281 283 293 296 292 286 286 285 283 282 279 274 276 281
220 220 220 217 219 225 231 233 231 230 234 238 243 243 235 233 238 235 229 233 241 248 254 263 272 274 272 272 272 276 283 284 281 282 284 285 284 283 282 279 278 280
216 212 217 224 228 231 239 241 233 234 239 236 233 231 229 233 236 231 231 237 240 245 255 261 265 266 266 267 270 274 277 277 278 279 278 279 280 281 283 283 281 281
221 219 226 235 236 232 236 237 232 234 237 229 221 221 226 232 232 230 233 234 234 241 251 253 255 259 263 267 271 274 277 279 281 283 283 282 282 281 283 283 282 281
224 223 224 226 228 231 232 226 223 227 227 220 218 222 228 227 220 219 221 217 222 236 244 246 253 260 265 269 273 275 279 282 284 287 287 287 286 284 283 283 283 282
219 225 226 225 226 227 220 209 205 209 210 210 211 213 214 212 207 204 200 199 215 230 238 248 258 264 268 273 276 279 283 285 286 287 288 288 288 287 285 285 286 285
213 220 223 221 213 203 197 193 190 189 191 195 196 193 191 191 190 190 191 201 218 233 247 261 271 277 282 286 288 290 291 294 296 296 294 293 293 292 291 290 290 289
188 187 186 180 176 177 179 181 181 180 183 186 186 183 182 181 183 191 201 218 237 252 267 278 286 292 297 300 302 301 302 308 312 312 309 307 304 300 298 296 296 295
182 181 178 172 171 176 180 182 183 185 187 190 192 194 196 198 203 215 226 237 249 261 275 288 296 302 306 312 314 311 313 319 323 325 326 325 322 318 313 309 306 300
201 199 197 192 189 190 191 194 199 203 205 207 209 210 212 215 221 227 230 235 247 265 283 293 299 304 308 313 315 316 320 324 326 329 332 333 331 327 323 320 313 301
219 220 220 217 214 216 219 219 218 215 212 213 213 213 213 215 217 219 224 235 253 269 281 288 294 299 302 306 311 314 318 323 326 329 333 334 331 323 318 315 305 289
237 227 228 232 234 236 236 226 217 212 210 211 212 211 213 216 220 225 234 247 257 264 271 278 284 291 295 299 304 307 311 316 319 323 327 327 323 315 305 296 288 279